Regional Weather Roundup
Issued by NWS Mobile, AL

Home | Current Version | Previous Version | Text Only | Print | Product List | Glossary On
Versions: 1 2 3 4 5 6 7 8 9 10 11 12 13 14 15 16 17 18 19 20 21 22 23 24 25 26 27 28 29 30 31 32 33 34 35 36 37 38 39 40 41 42 43 44 45 46 47 48 49 50
130
ASUS44 KMOB 120712
RWRMOB
REGIONAL WEATHER ROUNDUP
NATIONAL WEATHER SERVICE MOBILE AL
100 AM CST FRI FEB 12 2016

NOTE: "FAIR" INDICATES FEW OR NO CLOUDS BELOW 12,000 FEET WITH NO
      SIGNIFICANT WEATHER AND/OR OBSTRUCTIONS TO VISIBILITY.

  * THESE STATIONS ARE PART OF THE UNIVERSITY OF SOUTH ALABAMA
    MESONET AND ARE NOT UNDER NWS OR FAA QUALITY CONTROL.

ALZ061>064-120800-
COASTAL ALABAMA

CITY           SKY/WX    TMP DP  RH WIND       PRES   REMARKS
MOBILE REG APT CLEAR     57  56  96 SW12      30.17F
BROOKLEY FIELD CLEAR     60  56  86 SW8G17    30.18S
USA CAMPUS*    NOT AVBL
DOG RIVER*     NOT AVBL


CITY           SKY/WX    TMP DP  RH WIND       PRES   REMARKS
MOUNT VERNON*  NOT AVBL
SARALAND*      NOT AVBL
BAY MINETTE*   NOT AVBL
LOXLEY*        NOT AVBL
ROBERTSDALE*   NOT AVBL
FAIRHOPE*      NOT AVBL
ELBERTA*       NOT AVBL
FOLEY*         NOT AVBL
GRAND BAY*     NOT AVBL
DAUPHIN ISLND* NOT AVBL
BON SCOUR NWR* NOT AVBL
GULF SHORES    CLEAR     60  58  94 W13G18    30.18S

$$

ALZ051>060-120800-
INTERIOR SOUTHWEST AND SOUTH CENTRAL ALABAMA

CITY           SKY/WX    TMP DP  RH WIND       PRES   REMARKS
GREENVILLE     CLEAR     46  40  79 CALM      30.12S
EVERGREEN      FOG       49  48  97 CALM      30.14S VSB 1/4
CASTLEBERRY*   NOT AVBL
ATMORE*        NOT AVBL
DIXIE*         NOT AVBL
ANDALUSIA/OPP  FOG       57  53  86 CALM      30.14  VSB 3/4
ANDALUSIA*     NOT AVBL
FLORALA APT    CLEAR     57  55  93 SW7       30.16S
FLORALA*       NOT AVBL

$$

FLZ001>006-120800-
WESTERN FLORIDA PANHANDLE

CITY           SKY/WX    TMP DP  RH WIND       PRES   REMARKS
PENSACOLA      CLEAR     61  56  83 W14       30.16F
NAS PENSACOLA  NOT AVBL
MILTON         LGT RAIN  57  55  93 W7        30.16S
WHTNG S FIELD  CLEAR     61  56  83 VRB5      30.16S


CITY           SKY/WX    TMP DP  RH WIND       PRES   REMARKS
WALNUT HILL*   NOT AVBL
JAY*           NOT AVBL
DUKE FIELD     PTCLDY    59  56  91 W7        30.15S
CRESTVIEW      CLEAR     56  55  97 SW5       30.17S
VALPARAISO     NOT AVBL
DESTIN         CLEAR     63  59  87 W12G23    30.17S

$$

MSZ076-079-120800-
INTERIOR SOUTHEAST MISSISSIPPI

CITY           SKY/WX    TMP DP  RH WIND       PRES   REMARKS
LEAKESVILLE*   NOT AVBL
AGRICOLA*      NOT AVBL

$$

MARINE OBSERVATIONS

STATION/POSITION TIME  TEMP    WIND        PRES    WAVE
                       AIR SEA DIR/SP/G            HT/PER
                 (UTC) (F)     (DEG/KT/KT) (MB)    (FT/S)
PASCAGOULA       0600   59     230/  9/ 15 1022.0F
PETIT BOIS ISLND 0600   72     230/ 18/ 21 1022.7F
KATRINA CUT      0600   60     250/ 18       N/A
CEDAR POINT      0630   58     250/ 16     1021.7F
E DAUPHIN ISLAND 0600   63     240/ 13/ 18 1021.7F
MIDDLE BAY LIGHT 0600          250/ 20     1021.0F
USCG MOBILE BAY  0600   60 53  260/ 10/ 16 1022.0F
STATE DOCKS      0600   60 52              1021.3F
MEAHER PARK      0600   55     160/  7     1022.0S
WEEKS BAY        0500   60                   N/A
FORT MORGAN      0600   62     260/ 26/ 30 1021.2F
12 S ORANGE BCH  0650   64 64  240/ 21/ 25 1021.1F   5/ 6
PENSACOLA BAY    0600   64 51  240/  5/ 12 1021.8F

$$

SELECTED LOCATIONS ACROSS THE REGION

CITY           SKY/WX    TMP DP  RH WIND       PRES   REMARKS
NEW ORLEANS    PTCLDY    59  55  87 SW10      30.20F
GULFPORT       CLEAR     58  56  93 VRB6      30.17F
PASCAGOULA AP  CLEAR     58  56  93 SW5       30.18F
PASCAGOULA*    NOT AVBL
HATTIESBURG    PTCLDY    60  54  80 SW9       30.14F
LAUREL         PTCLDY    57  48  72 SW7       30.14S
MERIDIAN       CLEAR     40  38  93 CALM      30.14F
JACKSON        CLEAR     43  39  86 CALM      30.12S
MONTGOMERY     PTCLDY    46  37  71 CALM      30.14F
TROY           CLEAR     50  45  83 CALM      30.14S
KINSTON*       NOT AVBL
GENEVA*        NOT AVBL
ASHFORD*       NOT AVBL
DOTHAN         CLOUDY    58  56  93 W8        30.18S
PANAMA CITY    PTCLDY    62  57  83 SW12      30.16F

$$





USA.gov is the U.S. government's official web portal to all federal, state and local government web resources and services.